Regional Weather Roundup
Issued by NWS Jackson, KY

Home | Current Version | Previous Version | Graphics & Text | Print | Product List | Glossary On
Versions: 1 2 3 4 5 6 7 8 9 10 11 12 13 14 15 16 17 18 19 20 21 22 23 24 25 26 27
000
ASUS43 KJKL 262310
RWRJKL

EAST KENTUCKY HOURLY WEATHER ROUNDUP
NATIONAL WEATHER SERVICE JACKSON KY
700 PM EDT SUN MAR 26 2017

NOTE: "FAIR" INDICATES FEW OR NO CLOUDS BELOW 12,000 FEET WITH
NO SIGNIFICANT WEATHER AND/OR OBSTRUCTIONS TO VISIBILITY.

* THESE REPORTS ARE NOT UNDER NWS QUALITY CONTROL AND MAY NOT
  REPORT WEATHER SUCH AS PRECIPITATION AND FOG.

KYZ079-080-083-085-087-088-110-112-115-119-120-270000
...EASTERN KENTUCKY...

CITY           SKY/WX    TMP DP  RH WIND       PRES   REMARKS
JACKSON        LGT RAIN  60  57  89 CALM      29.98F
LONDON         PTCLDY    63  57  81 SW5       29.98S
SOMERSET*      MOSUNNY   66  52  59 SW13G21   29.98R
MONTICELLO*    PTSUNNY   68  56  65 SW14G22   29.99R
WILLIAMSBURG*  MOCLDY    63  63 100 SW5       29.99S
MIDDLESBORO*   CLEAR     69  54  58 S8        29.99S
HARLAN APT*    MOCLDY    68  52  56 CALM      30.00S
PIKE CO APT*     N/A     63  60  90 SE3       29.99F
BIG SANDY APT* LGT RAIN  63  61  93 CALM      29.99S
MOREHEAD APT*  CLOUDY    64  54  68 S6        29.96S
ASHLAND*       CLOUDY    63  57  82 S8        29.94S
$$

KYZ035-036-041-042-044-050-067-078-099-270000
...CENTRAL KENTUCKY...

CITY           SKY/WX    TMP DP  RH WIND       PRES   REMARKS
MT STERLING*   CLOUDY    64  54  68 SW7       29.95S
FLEMING/MASON* LGT RAIN  64  53  68 S7        29.95R
DANVILLE*      CLOUDY    61  55  82 W3        29.96F
LEXINGTON      CLOUDY    66  53  63 SW12G22   29.94R
FRANKFORT      CLOUDY    65  56  72 SW7       29.91S
LOUISVILLE     PTSUNNY   68  53  58 W10       29.91R
LEBANON*       MOCLDY    64  55  72 S9        29.94S
GLASGOW*       PTSUNNY   68  54  61 SW9       29.94R
BOWLING GREEN  PTSUNNY   71  51  49 SW14      29.93R
$$

KYZ091>093-OHZ055-061-077-WVZ005-015-034-035-042-270000
...SOUTHERN OHIO/WEST VIRGINIA...

CITY           SKY/WX    TMP DP  RH WIND       PRES   REMARKS
COVINGTON      LGT RAIN  58  55  90 SW5       29.91R
COLUMBUS       PTCLDY    63  56  78 S6        29.90F
DAYTON         LGT RAIN  58  56  93 W10       29.92R
WILMINGTON     LGT RAIN  61  54  77 SW7       29.89S
HUNTINGTON     LGT RAIN  60  56  86 S8        29.97S
CHARLESTON     CLOUDY    60  57  89 NE6       30.01R
PINEVILLE*     LGT RAIN  60  57  88 MISG      30.09R
BECKLEY        LGT RAIN  59  51  75 NW12      30.06R
LOGAN CO APT*  CLOUDY    61  59  94 CALM      30.01S
$$

VAZ002-007-008-TNZ017-027-036-066-071-270000
...SOUTHWEST VIRGINIA/EAST TENNESSEE...

CITY           SKY/WX    TMP DP  RH WIND       PRES   REMARKS
WISE*          PTCLDY    64  46  52 S13       30.05R
JONESVILLE*    MOCLDY    68  55  64 SW9       30.02R
ABINGDON*      CLOUDY    66  54  64 W6        30.05R
BRISTOL        PTCLDY    68  53  58 SW7       30.02F
MORRISTOWN*    PTCLDY    66  59  77 SW6       30.00S
SEVIERVILLE*   PTCLDY    72  50  46 SW16      29.99S
KNOXVILLE      PTCLDY    71  54  54 SW15G24   29.98F
LAFOLLETTE*    MOCLDY    70  54  56 SW9       30.01S
OAK RIDGE      PTSUNNY   72  55  55 VRB5      29.99S
CROSSVILLE     MOSUNNY   64  55  72 W9        30.02R
NASHVILLE      PTSUNNY   72  52  49 SW10      29.96R
$$

...KEY TO REMARKS...
VSB - VISIBILITY IN MILES
WCI - WIND CHILL INDEX
HX  - HEAT INDEX

$$




USA.gov is the U.S. government's official web portal to all federal, state and local government web resources and services.